User: anonymous
Location: Karlovy Vary
(50.2170°N, 12.9000°E)
Time: 23:15:35
(UTC+02:00)
Language:

ISS - Orbit

View from above orbital plane
View from above orbital plane
View from above satellite
View from above satellite

Ground track
Ground track

The orbit data is extracted from the following two-line orbital elements,

1 25544U 98067A   14211.55922527  .00003995  00000-0  76679-4 0  8002
2 25544 051.6477 244.6003 0006331 310.3690 196.1452 15.50480661898050
Epoch (UTC): 30 July 2014 13:25:17
Eccentricity: 0.0006331
inclination: 51.6477°
perigee height: 411 km
apogee height: 419 km
right ascension of ascending node: 244.6003°
argument of perigee: 310.3690°
revolutions per day: 15.50480661
mean anomaly at epoch: 196.1452°
orbit number at epoch: 89805

The dashed part of the orbit path shows where the satellite is in the earth's shadow,  

DLR